(48484) = 1992 ET1 = 2001 GN

Discovered at Kitt Peak on 1992-03-11 by A. Dunn.

Orbit

Orbit type: Main Belt

Note: WebGL enabled browser required.

epoch2023-09-13.0
epoch JD2460200.5
perihelion date2019-07-08.14104
perihelion JD2458672.64104
argument of perihelion (°)270.13718
ascending node (°)16.36430
inclination (°)7.31172
eccentricity0.1240724
perihelion distance (AU)2.3439336
Tisserand w.r.t. Jupiter3.4
ΔV w.r.t. Earth (km/sec)9.9
semimajor axis (AU)2.6759444
mean anomaly (°)344.01032
mean daily motion (°/day)0.22515840
aphelion distance (AU)3.008
period (years)4.38
P-vector [x]0.28174914
P-vector [y]-0.82191087
P-vector [z]-0.49505549
Q-vector [x]0.95881787
Q-vector [y]0.26046340
Q-vector [z]0.11325681
absolute magnitude14.84
phase slope0.15
uncertainty0
referenceMPEC 2024-A48
observations used2073
oppositions21
arc length (days)11469
first opposition used1992
last opposition used2023
residual rms (arc-secs)0.59
perturbers coarse indicatorM-v
perturbers precise indicator003Ek
first observation date used1992-03-11.0
last observation date used2023-08-05.0
computer nameMPCLINUX
JD of orbit computation2456937.360779
perihelion JD uncertainty (days)1.2821E-04
argument of perihelion uncertainty (°)4.2221E-05
ascending node uncertainty (°)3.3019E-05
inclination uncertainty (°)6.1504E-06
eccentricity uncertainty 3.7299E-08
perihelion distance uncertainty (AU)1.0103E-07
Minimum Orbit Intersection Distances (in AU)
for orbit epoch: 2460200.5, reference: E2024-A48
Mercury1.88683
Venus1.62111
Earth1.34144
Mars0.9089
Jupiter2.16891
Saturn6.09697
Uranus15.58
Neptune27.0307

Observations

2105 total observations over interval: 1992 03 11.41418 – 2023 08 05.822376
These data are available for download (format description).

Date (UT) J2000 RA J2000 Dec Magn Location Ref
1992 03 11.41418 12 59 15.64 -04 11 20.6 18   695 – Kitt Peak MPC 19970
1992 03 11.43649 12 59 14.72 -04 11 17.9   695 – Kitt Peak MPC 19970
1992 03 12.41368 12 58 33.18 -04 09 14.1   695 – Kitt Peak MPC 19970
1992 03 13.29880 12 57 54.80 -04 07 17.3   695 – Kitt Peak MPC 19970
1992 03 13.30260 12 57 54.63 -04 07 17.0   695 – Kitt Peak MPC 19970
1992 03 13.30642 12 57 54.44 -04 07 16.5   695 – Kitt Peak MPC 19970
1996 02 18.44623 10 43 10.97 +16 18 50.6 18.6 V 691 – Steward Observatory, Kitt Peak-Spacewatch MPS 81221
1996 02 18.47145 10 43 09.55 +16 18 56.6 18.8 V 691 – Steward Observatory, Kitt Peak-Spacewatch MPS 81221
1996 02 18.49672 10 43 08.14 +16 19 02.8 18.9 V 691 – Steward Observatory, Kitt Peak-Spacewatch MPS 81221
1998 10 19.33458 02 37 29.33 +19 30 42.5 18.8 R 699 – Lowell Observatory-LONEOS MPS 33955
1998 10 19.35444 02 37 28.12 +19 30 40.7   699 – Lowell Observatory-LONEOS MPS 33955
1998 10 19.37360 02 37 27.05 +19 30 39.9   699 – Lowell Observatory-LONEOS MPS 33955
2000 01 03.30724 08 51 42.34 +28 18 45.7 19.1   704 – Lincoln Laboratory ETS, New Mexico MPS 31540
2000 01 03.32193 08 51 41.69 +28 18 49.9 19.9   704 – Lincoln Laboratory ETS, New Mexico MPS 31540
2000 01 03.36625 08 51 39.72 +28 19 02.9 19.2   704 – Lincoln Laboratory ETS, New Mexico MPS 31540
2000 01 29.32885 08 26 50.77 +29 52 06.2 19.6   704 – Lincoln Laboratory ETS, New Mexico MPS 31540
2000 01 29.34539 08 26 49.79 +29 52 09.0 19.7   704 – Lincoln Laboratory ETS, New Mexico MPS 31540
2000 01 29.36024 08 26 48.83 +29 52 10.5 19.0   704 – Lincoln Laboratory ETS, New Mexico MPS 31540
2001 02 19.46628 14 40 44.95 -16 28 33.1 18.1   704 – Lincoln Laboratory ETS, New Mexico MPS 31722
2001 02 19.48099 14 40 45.47 -16 28 37.4 18.0   704 – Lincoln Laboratory ETS, New Mexico MPS 31722
2001 02 19.49591 14 40 45.88 -16 28 41.2 17.8   704 – Lincoln Laboratory ETS, New Mexico MPS 31722
2001 04 01.34426 14 39 56.41 -18 38 33.0 18.9   704 – Lincoln Laboratory ETS, New Mexico MPS 29633
2001 04 01.36028 14 39 55.81 -18 38 33.6 19.4   704 – Lincoln Laboratory ETS, New Mexico MPS 29633
2001 04 01.37977 14 39 55.04 -18 38 35.8 19.4   704 – Lincoln Laboratory ETS, New Mexico MPS 29633
2001 04 01.39482 14 39 54.57 -18 38 35.8 19.7   704 – Lincoln Laboratory ETS, New Mexico MPS 29633
2001 04 05.55861 14 37 16.14 -18 42 20.3 20.3   608 – Haleakala-AMOS MPS 29633
2001 04 05.56953 14 37 15.68 -18 42 20.5 20.0   608 – Haleakala-AMOS MPS 29633
2001 04 05.58037 14 37 15.20 -18 42 20.3 19.4   608 – Haleakala-AMOS MPS 29633
2001 04 30.28537 14 15 17.38 -18 26 35.2 17.8   704 – Lincoln Laboratory ETS, New Mexico MPS 31722
2001 04 30.29866 14 15 16.55 -18 26 34.3 17.9   704 – Lincoln Laboratory ETS, New Mexico MPS 31722
2001 04 30.31177 14 15 15.72 -18 26 32.7 18.2   704 – Lincoln Laboratory ETS, New Mexico MPS 31722
2001 04 30.32512 14 15 14.84 -18 26 31.2 17.7   704 – Lincoln Laboratory ETS, New Mexico MPS 31722
2001 04 30.33901 14 15 14.04 -18 26 30.2 17.8   704 – Lincoln Laboratory ETS, New Mexico MPS 31722
2001 05 21.21612 13 56 49.74 -17 45 02.4 17.8   704 – Lincoln Laboratory ETS, New Mexico MPS 31722
2001 05 21.22821 13 56 49.24 -17 45 00.9 18.6   704 – Lincoln Laboratory ETS, New Mexico MPS 31722
2001 05 21.23976 13 56 48.75 -17 44 59.7 18.6   704 – Lincoln Laboratory ETS, New Mexico MPS 31722
2001 05 21.25118 13 56 48.28 -17 44 57.7 18.6   704 – Lincoln Laboratory ETS, New Mexico MPS 31722
2001 05 21.26257 13 56 47.70 -17 44 56.9 18.2   704 – Lincoln Laboratory ETS, New Mexico MPS 31722
2002 08 31.35188 00 23 24.90 -02 23 41.8 18.3 R 699 – Lowell Observatory-LONEOS MPS 60681
2002 08 31.36943 00 23 24.08 -02 23 44.7   699 – Lowell Observatory-LONEOS MPS 60681
2002 08 31.38699 00 23 23.39 -02 23 46.7   699 – Lowell Observatory-LONEOS MPS 60681
2002 08 31.40451 00 23 22.63 -02 23 50.0   699 – Lowell Observatory-LONEOS MPS 60681
2002 09 05.27530 00 19 48.42 -02 35 43.1 18.6   704 – Lincoln Laboratory ETS, New Mexico MPS 60681
2002 09 05.28962 00 19 47.70 -02 35 45.3 18.7   704 – Lincoln Laboratory ETS, New Mexico MPS 60681
2002 09 05.30548 00 19 46.95 -02 35 47.3 19.1   704 – Lincoln Laboratory ETS, New Mexico MPS 60681
2002 09 05.31991 00 19 46.28 -02 35 49.2 19.0   704 – Lincoln Laboratory ETS, New Mexico MPS 60681
2002 09 05.33460 00 19 45.56 -02 35 52.1 18.8   704 – Lincoln Laboratory ETS, New Mexico MPS 60681
2002 09 06.27253 00 19 01.21 -02 38 19.8 18.0   704 – Lincoln Laboratory ETS, New Mexico MPS 60681
2002 09 06.28673 00 19 00.55 -02 38 22.1 18.0   704 – Lincoln Laboratory ETS, New Mexico MPS 60681
2002 09 06.30154 00 18 59.80 -02 38 24.5 18.2   704 – Lincoln Laboratory ETS, New Mexico MPS 60681
2002 09 06.31566 00 18 59.07 -02 38 26.6 18.5   704 – Lincoln Laboratory ETS, New Mexico MPS 60681
2002 09 06.32985 00 18 58.39 -02 38 28.5 18.4   704 – Lincoln Laboratory ETS, New Mexico MPS 60681
2002 09 15.49289 00 11 04.70 -03 04 11.7 17.6   644 – Palomar Mountain/NEAT MPS 60681
2002 09 15.50368 00 11 04.10 -03 04 13.5 17.6   644 – Palomar Mountain/NEAT MPS 60681
2002 09 15.51432 00 11 03.51 -03 04 15.3 17.7   644 – Palomar Mountain/NEAT MPS 60681
2002 09 16.34340 00 10 18.56 -03 06 38.5 18.9   608 – Haleakala-AMOS MPS 62476
2002 09 16.35441 00 10 17.95 -03 06 40.2 18.9   608 – Haleakala-AMOS MPS 62476
2002 09 16.36542 00 10 17.34 -03 06 41.4 19.3   608 – Haleakala-AMOS MPS 62476
2002 10 02.44078 23 55 29.64 -03 48 03.7 18.5   608 – Haleakala-AMOS MPS 62476
2002 10 02.45134 23 55 29.05 -03 48 05.1 18.5   608 – Haleakala-AMOS MPS 62476
2002 10 02.46218 23 55 28.47 -03 48 06.0 19.0   608 – Haleakala-AMOS MPS 62476
2002 10 03.24493 23 54 47.57 -03 49 42.1 18.6   704 – Lincoln Laboratory ETS, New Mexico MPS 62476
2002 10 03.25993 23 54 46.74 -03 49 43.7 18.7   704 – Lincoln Laboratory ETS, New Mexico MPS 62476
2002 10 03.27495 23 54 45.96 -03 49 46.0 18.7   704 – Lincoln Laboratory ETS, New Mexico MPS 62476
2002 10 03.28996 23 54 45.14 -03 49 47.3 19.0   704 – Lincoln Laboratory ETS, New Mexico MPS 62476
2002 10 03.30483 23 54 44.32 -03 49 49.4 19.0   704 – Lincoln Laboratory ETS, New Mexico MPS 62476
2002 10 06.24552 23 52 14.62 -03 55 11.5 17.8   704 – Lincoln Laboratory ETS, New Mexico MPS 62476
2002 10 06.26059 23 52 13.87 -03 55 12.9 18.3   704 – Lincoln Laboratory ETS, New Mexico MPS 62476
2002 10 06.27532 23 52 13.15 -03 55 14.6 17.8   704 – Lincoln Laboratory ETS, New Mexico MPS 62476
2002 10 06.28988 23 52 12.30 -03 55 16.0 18.2   704 – Lincoln Laboratory ETS, New Mexico MPS 62476
2002 10 06.30474 23 52 11.59 -03 55 17.8 18.3   704 – Lincoln Laboratory ETS, New Mexico MPS 62476
2002 10 11.17521 23 48 21.63 -04 02 05.4 17.9   704 – Lincoln Laboratory ETS, New Mexico MPS 62476
2002 10 11.19117 23 48 20.87 -04 02 06.4 18.5   704 – Lincoln Laboratory ETS, New Mexico MPS 62476
2002 10 11.20716 23 48 20.15 -04 02 07.6 18.4   704 – Lincoln Laboratory ETS, New Mexico MPS 62476
2002 10 11.22311 23 48 19.41 -04 02 08.7 18.6   704 – Lincoln Laboratory ETS, New Mexico MPS 62476
2002 10 11.23915 23 48 18.65 -04 02 09.6 18.5   704 – Lincoln Laboratory ETS, New Mexico MPS 62476
2002 10 12.23911 23 47 34.60 -04 03 11.8 18.1   704 – Lincoln Laboratory ETS, New Mexico MPS 62476
2002 10 12.25547 23 47 33.87 -04 03 12.8 18.3   704 – Lincoln Laboratory ETS, New Mexico MPS 62476
2002 10 12.27079 23 47 33.21 -04 03 13.7 18.2   704 – Lincoln Laboratory ETS, New Mexico MPS 62476
2002 10 12.28669 23 47 32.51 -04 03 14.3 18.5   704 – Lincoln Laboratory ETS, New Mexico MPS 62476
2002 10 12.30244 23 47 31.81 -04 03 15.2 18.8   704 – Lincoln Laboratory ETS, New Mexico MPS 62476
2002 10 30.18350 23 38 14.91 -03 58 59.9 19.0   704 – Lincoln Laboratory ETS, New Mexico MPS 65270
2002 10 30.20092 23 38 14.58 -03 58 58.3 19.3   704 – Lincoln Laboratory ETS, New Mexico MPS 65270
2002 10 30.21829 23 38 14.19 -03 58 58.0 19.4   704 – Lincoln Laboratory ETS, New Mexico MPS 65270
2002 10 30.23563 23 38 13.88 -03 58 55.6 19.2   704 – Lincoln Laboratory ETS, New Mexico MPS 65270
2002 12 05.08411 23 43 44.52 -01 42 20.0 19.9   704 – Lincoln Laboratory ETS, New Mexico MPS 69261
2002 12 05.09932 23 43 44.94 -01 42 13.6 20.7   704 – Lincoln Laboratory ETS, New Mexico MPS 69261
